Location: Unspecified
(47.5840°N, 122.3000°W)
Time: 18:59:56
(UTC+00:00)

IRIDIUM 114 - Pass Details

Date: 21 March 2026
Orbit: 776 x 779 km, 86.4° (Epoch: 14 April)

Event Time Altitude Azimuth Distance (km) Brightness Sun altitude
Exits shadow 04:13:55 36° 126° (SE) 1,222 4.8 -19.1°
Maximum altitude 04:15:21 45° 86° (E) 1,062 4.6 -19.4°
Drops below altitude 10° 04:20:19 10° 15° (NNE) 2,341 6.9 -20.1°
Sets 04:22:45 0° 10° (N) 3,273 7.8 -20.5°
